Regional Weather Roundup
Issued by NWS

Home | Current Version | Previous Version | Text Only | Print | Product List | Glossary Off
Versions: 1 2 3 4 5 6 7 8 9 10 11 12 13 14 15 16 17 18 19 20 21 22 23 24 25 26 27 28 29 30 31 32 33 34 35 36 37 38 39 40 41 42 43 44 45 46 47 48 49 50

000
ASUS43 KBIS 171310
RWRND

NORTH DAKOTA REGIONAL WEATHER ROUNDUP
NATIONAL WEATHER SERVICE BISMARCK ND
700 AM CST WED JAN 17 2018

NOTE: "FAIR" INDICATES FEW OR NO CLOUDS BELOW 12,000 FEET WITH NO
SIGNIFICANT WEATHER AND/OR OBSTRUCTIONS TO VISIBILITY.


NDZ001>003-009>011-017-171400-
NORTHWEST NORTH DAKOTA

CITY           SKY/WX    TMP DP  RH WIND       PRES   REMARKS
WILLISTON      CLEAR     10   3  73 S9        30.11R WCI  -3
MINOT          CLOUDY    21  10  62 SW22      29.99S WCI   5
MINOT AFB      CLOUDY    20  12  68 W20       29.97R WCI   5
$$

NDZ018>021-031>035-040>046-171400-
SOUTHWEST NORTH DAKOTA

CITY           SKY/WX    TMP DP  RH WIND       PRES   REMARKS
BISMARCK       PTCLDY    -1  -6  79 CALM      30.12F
DICKINSON      CLEAR     22  12  65 W18       30.09R WCI   7
GARRISON         N/A     10   2  69 CALM      30.06S
HETTINGER ARPT PTCLDY    18   8  65 W14       30.16R WCI   4
$$

NDZ004>008-012>016-024-026-027-054-171400-
NORTHEAST NORTH DAKOTA

CITY           SKY/WX    TMP DP  RH WIND       PRES   REMARKS
GRAND FORKS    FAIR       6   0  76 S15       30.03F WCI -12
GRND FRKS AFB  FAIR       8  -1  69 S12       30.01F WCI  -8
DEVILS LAKE    FAIR      12   3  67 SW14      29.99F WCI  -3
$$

NDZ022-023-025-028>030-036>039-047>053-171400-
SOUTHEAST NORTH DAKOTA

CITY           SKY/WX    TMP DP  RH WIND       PRES   REMARKS
FARGO          FAIR       6  -1  73 S18       30.13F WCI -13
JAMESTOWN      CLOUDY     7   1  76 S8        30.06F WCI  -6
$$




USA.gov is the U.S. government's official web portal to all federal, state and local government web resources and services.